Date String (YYYY-MM-DD hh:mm:ss) UTC,Instrument flags,absolute air pressure of the measurement (hPa),sample flow rate (lpm),inlet stack bypass flow (lpm),air temperature of the measurement (°C),ambient temperature measured by the external sensor (°C),aerosol sample conditioner tube jacket temperature (°C),OPC LED temperature (°C),internal box temperature (°C),relative humidity of the measurement (%),span deviation,mass concentration of particles derived from Lorenz-Mie calculation of OPC scattering (μg/m³),mass concentration of particles derived from Lorenz-Mie calculation of OPC scattering (μg/m³),mass concentration of particles derived from Lorenz-Mie calculation of OPC scattering (μg/m³)
DateTimeUTC,F1_M11,P_M11,Q1_M11,Q2_M11,T1_M11,T2_M11,T3_M11,T4_M11,T5_M11,U1_M11,ZSPAN_M11,X2_M11,X0_M11,X1_M11
2024-04-26 07:00:00,SystemResetWarning,0818.3,5.00,000.00,025.3,024.4,000.0,034.0,027.1,028.5,0000.0,0003.64,0006.46,0003.11
2024-04-26 07:01:00,SystemResetWarning,0818.2,4.99,000.00,025.3,024.4,000.0,033.9,027.1,028.4,0000.0,0003.64,0006.36,0003.10
2024-04-26 07:02:00,SystemResetWarning,0818.2,4.98,000.00,025.3,024.4,000.0,033.9,027.1,028.3,0000.0,0003.63,0006.36,0003.10
2024-04-26 07:03:00,SystemResetWarning,0818.2,5.01,000.00,025.3,024.4,000.0,033.9,027.1,028.4,0000.0,0003.60,0006.35,0003.10
2024-04-26 07:04:00,SystemResetWarning,0818.2,5.01,000.00,025.3,024.4,000.0,033.9,027.1,028.5,0000.0,0003.59,0007.40,0003.08
2024-04-26 07:05:00,SystemResetWarning,0818.1,4.99,000.00,025.3,024.4,000.0,033.9,027.1,028.6,0000.0,0003.57,0007.33,0003.07
2024-04-26 07:06:00,SystemResetWarning,0818.1,4.99,000.00,025.3,024.4,000.0,033.9,027.1,028.6,0000.0,0003.55,0007.75,0003.07
2024-04-26 07:07:00,SystemResetWarning,0818.1,5.00,000.00,025.2,024.4,000.0,033.9,027.1,028.7,0000.0,0003.57,0008.40,0003.08
2024-04-26 07:08:00,SystemResetWarning,0818.1,5.02,000.00,025.2,024.4,000.0,033.9,027.1,028.7,0000.0,0003.57,0008.56,0003.08
2024-04-26 07:09:00,SystemResetWarning,0818.1,5.00,000.00,025.2,024.4,000.0,033.9,027.1,028.7,0000.0,0003.57,0008.52,0003.05
2024-04-26 07:10:00,SystemResetWarning,0818.1,5.00,000.00,025.2,024.4,000.0,033.9,027.1,028.8,0000.0,0003.60,0008.63,0003.03
2024-04-26 07:11:00,SystemResetWarning,0818.1,5.00,000.00,025.2,024.4,000.0,033.9,027.1,028.8,0000.0,0003.57,0008.65,0003.01
2024-04-26 07:12:00,SystemResetWarning,0818.1,5.00,000.00,025.2,024.4,000.0,033.9,027.1,028.8,0000.0,0003.57,0008.70,0002.99
2024-04-26 07:13:00,SystemResetWarning,0818.1,5.00,000.00,025.2,024.4,000.0,033.9,027.1,028.8,0000.0,0003.55,0008.70,0002.96
2024-04-26 07:14:00,SystemResetWarning,0818.1,5.00,000.00,025.2,024.4,000.0,033.9,027.1,028.8,0000.0,0003.55,0008.72,0002.95
2024-04-26 07:15:00,SystemResetWarning,0818.1,5.01,000.00,025.2,024.4,000.0,033.8,027.1,028.7,0000.0,0003.60,0008.20,0002.96
2024-04-26 07:16:00,SystemResetWarning,0818.1,5.00,000.00,025.2,024.4,000.0,033.8,027.0,028.7,0000.0,0003.60,0008.17,0002.96
2024-04-26 07:17:00,SystemResetWarning,0818.1,5.01,000.00,025.2,024.4,000.0,033.8,027.1,028.7,0000.0,0003.60,0007.87,0002.95
2024-04-26 07:18:00,SystemResetWarning,0818.1,5.00,000.00,025.2,024.4,000.0,033.8,027.0,028.6,0000.0,0003.54,0006.87,0002.92
2024-04-26 07:19:00,SystemResetWarning,0818.1,5.01,000.00,025.2,024.4,000.0,033.8,027.0,028.6,0000.0,0003.53,0006.38,0002.90
2024-04-26 07:20:00,SystemResetWarning,0818.1,5.00,000.00,025.2,024.4,000.0,033.8,027.0,028.7,0000.0,0003.53,0006.35,0002.90
2024-04-26 07:21:00,SystemResetWarning,0818.1,5.00,000.00,025.2,024.4,000.0,033.8,027.0,028.6,0000.0,0003.50,0005.88,0002.90
2024-04-26 07:22:00,SystemResetWarning,0818.1,4.99,000.00,025.2,024.3,000.0,033.8,027.0,028.6,0000.0,0003.46,0005.63,0002.89
2024-04-26 07:23:00,SystemResetWarning,0818.0,4.99,000.00,025.2,024.3,000.0,033.8,027.0,028.6,0000.0,0003.44,0005.47,0002.90
2024-04-26 07:24:00,SystemResetWarning,0818.0,5.00,000.00,025.2,024.3,000.0,033.8,027.0,028.5,0000.0,0003.46,0005.51,0002.89
2024-04-26 07:25:00,SystemResetWarning,0818.0,5.01,000.00,025.1,024.3,000.0,033.8,027.0,028.5,0000.0,0003.44,0005.42,0002.86
2024-04-26 07:26:00,SystemResetWarning,0818.0,4.99,000.00,025.1,024.3,000.0,033.8,027.0,028.5,0000.0,0003.39,0005.22,0002.82
2024-04-26 07:27:00,SystemResetWarning,0818.0,4.99,000.00,025.1,024.3,000.0,033.8,026.9,028.5,0000.0,0003.37,0005.11,0002.79
2024-04-26 07:28:00,SystemResetWarning,0818.0,5.02,000.00,025.1,024.3,000.0,033.8,027.0,028.5,0000.0,0003.37,0005.13,0002.78
2024-04-26 07:29:00,SystemResetWarning,0818.0,5.00,000.00,025.1,024.3,000.0,033.7,026.9,028.4,0000.0,0003.37,0005.26,0002.76
2024-04-26 07:30:00,SystemResetWarning,0818.0,4.99,000.00,025.1,024.3,000.0,033.7,026.9,028.4,0000.0,0003.37,0005.46,0002.74
2024-04-26 07:31:00,SystemResetWarning,0818.0,4.99,000.00,025.1,024.3,000.0,033.7,026.9,028.4,0000.0,0003.33,0005.56,0002.70
2024-04-26 07:32:00,SystemResetWarning,0818.0,5.01,000.00,025.1,024.3,000.0,033.7,026.9,028.3,0000.0,0003.29,0005.49,0002.65
2024-04-26 07:33:00,SystemResetWarning,0818.0,5.01,000.00,025.1,024.3,000.0,033.7,026.9,028.3,0000.0,0003.32,0005.73,0002.63
2024-04-26 07:34:00,SystemResetWarning,0818.0,4.99,000.00,025.1,024.2,000.0,033.7,026.9,028.2,0000.0,0003.34,0005.95,0002.59
2024-04-26 07:35:00,SystemResetWarning,0818.0,4.99,000.00,025.1,024.2,000.0,033.7,026.9,028.2,0000.0,0003.32,0005.88,0002.57
2024-04-26 07:36:00,SystemResetWarning,0817.9,5.01,000.00,025.1,024.2,000.0,033.7,026.9,028.2,0000.0,0003.32,0005.86,0002.56
2024-04-26 07:37:00,SystemResetWarning,0818.0,4.99,000.00,025.1,024.2,000.0,033.7,026.9,028.2,0000.0,0003.31,0005.84,0002.54
2024-04-26 07:38:00,SystemResetWarning,0818.0,4.99,000.00,025.1,024.2,000.0,033.7,026.9,028.3,0000.0,0003.31,0005.87,0002.52
2024-04-26 07:39:00,SystemResetWarning,0817.9,5.01,000.00,025.0,024.2,000.0,033.7,026.8,028.2,0000.0,0003.30,0005.89,0002.49
2024-04-26 07:40:00,SystemResetWarning,0818.0,5.01,000.00,025.0,024.2,000.0,033.7,026.9,028.1,0000.0,0003.31,0005.86,0002.47
2024-04-26 07:41:00,SystemResetWarning,0817.9,4.99,000.00,025.0,024.2,000.0,033.6,026.8,028.1,0000.0,0003.27,0005.72,0002.46
2024-04-26 07:42:00,SystemResetWarning,0817.9,5.00,000.00,025.0,024.2,000.0,033.6,026.8,028.1,0000.0,0003.26,0005.53,0002.44
2024-04-26 07:43:00,SystemResetWarning,0817.9,5.01,000.00,025.0,024.2,000.0,033.6,026.8,028.2,0000.0,0003.26,0005.65,0002.41
2024-04-26 07:44:00,SystemResetWarning,0817.9,5.00,000.00,025.0,024.2,000.0,033.6,026.8,028.2,0000.0,0003.23,0005.48,0002.38
2024-04-26 07:45:00,SystemResetWarning,0817.8,4.98,000.00,025.0,024.2,000.0,033.6,026.8,028.3,0000.0,0003.19,0005.18,0002.38
2024-04-26 07:46:00,SystemResetWarning,0817.8,5.00,000.00,025.0,024.2,000.0,033.6,026.8,028.3,0000.0,0003.17,0005.15,0002.38
2024-04-26 07:47:00,SystemResetWarning,0817.8,5.02,000.00,025.0,024.1,000.0,033.6,026.8,028.3,0000.0,0003.19,0005.25,0002.39
2024-04-26 07:48:00,SystemResetWarning,0817.8,4.99,000.00,025.0,024.1,000.0,033.6,026.8,028.3,0000.0,0003.21,0005.36,0002.39
2024-04-26 07:49:00,SystemResetWarning,0817.7,4.98,000.00,025.0,024.1,000.0,033.6,026.8,028.3,0000.0,0003.19,0005.41,0002.38
2024-04-26 07:50:00,SystemResetWarning,0817.8,5.02,000.00,024.9,024.1,000.0,033.6,026.8,028.2,0000.0,0003.19,0006.13,0002.38
2024-04-26 07:51:00,SystemResetWarning,0817.8,4.99,000.00,024.9,024.1,000.0,033.6,026.7,028.2,0000.0,0003.20,0006.28,0002.38
2024-04-26 07:52:00,SystemResetWarning,0817.7,4.99,000.00,024.9,024.1,000.0,033.6,026.7,028.2,0000.0,0003.21,0006.15,0002.39
2024-04-26 07:53:00,SystemResetWarning,0817.7,5.00,000.00,024.9,024.1,000.0,033.5,026.7,028.0,0000.0,0003.22,0006.27,0002.40
2024-04-26 07:54:00,SystemResetWarning,0817.7,5.02,000.00,024.9,024.1,000.0,033.5,026.7,027.8,0000.0,0003.20,0006.18,0002.40
2024-04-26 07:55:00,SystemResetWarning,0817.6,4.99,000.00,024.9,024.0,000.0,033.5,026.7,027.8,0000.0,0003.21,0006.20,0002.40
2024-04-26 07:56:00,SystemResetWarning,0817.6,4.99,000.00,024.9,024.0,000.0,033.5,026.7,027.8,0000.0,0003.21,0006.21,0002.40
2024-04-26 07:57:00,SystemResetWarning,0817.6,4.99,000.00,024.9,024.0,000.0,033.5,026.7,027.8,0000.0,0003.22,0006.71,0002.39
2024-04-26 07:58:00,SystemResetWarning,0817.6,5.01,000.00,024.9,024.0,000.0,033.5,026.7,027.9,0000.0,0003.22,0007.32,0002.38
2024-04-26 07:59:00,SystemResetWarning,0817.6,5.01,000.00,024.8,024.0,000.0,033.5,026.6,027.7,0000.0,0003.21,0007.32,0002.38
